Simultaneous Nadir Overpasses (SNOs) Predictions

Prediction of SNOs between METOP-A and NOAA-19 Satellite Orbit:

Table of predicted SNOs for the next 14.0 days since TLE Epoch: 12/28/2018
Index Date (METOP-A) Time (METOP-A) Lat,Lon (METOP-A) SZA (METOP-A ) Date (NOAA-19) Time (NOAA-19) Lat,Lon (NOAA-19) SZA (NOAA-19 ) Distance(km) Time Diff (sec)
1 01/03/2019 13:02:10 -79.24, 175.14 77.87 01/03/2019 13:00:57 -79.24, 175.05 77.88 1.92 73
2 01/03/2019 13:52:50 79.23, -17.58 102.12 01/03/2019 13:52:01 79.23, -17.63 102.11 1.09 49
3 01/03/2019 14:43:32 -79.21, 149.65 77.91 01/03/2019 14:42:57 -79.21, 149.81 77.91 3.49 35
4 01/03/2019 15:34:12 79.21, -43.07 102.09 01/03/2019 15:34:02 79.23, -43.14 102.11 3.10 10
5 01/03/2019 16:24:53 -79.23, 124.41 77.90 01/03/2019 16:24:58 -79.21, 124.31 77.92 2.89 5
6 01/03/2019 17:15:33 79.22, -68.31 102.10 01/03/2019 17:16:02 79.20, -68.38 102.08 2.61 29
7 01/03/2019 18:06:15 -79.21, 98.92 77.93 01/03/2019 18:06:59 -79.21, 98.80 77.92 2.44 44
8 01/03/2019 18:56:55 79.20, -93.80 102.06 01/03/2019 18:58:03 79.20, -93.89 102.07 1.84 68




NCC Satellite Simultaneous Nadir Overpasses (SNOs) Prediction Service
